Home   Weather   Kerman   Past weeks

Flag for Iran Past Weather in Kerman, Iran — Yesterday and Last 2 Weeks

Now
32 °F

Sunny.


Feels Like: 27 °F
Forecast: 28 / 58 °F
Wind: 5 mph from East

Location: Kerman Airport

Current Time: Jan 18, 2017 at 9:25:22 am

Latest Report: Jan 18, 2017 at 8:30 am


Visibility: 10 mi

Pressure: 30.24 "Hg (24.26 "Hg at 1762m altitude)

Humidity: 55%

Dew Point: 18 °F

Location of KermanLocation

Past Weather in Kerman — Graph

°F

Kerman Temperature Yesterday

Maximum temperature yesterday: 54 °F (at 3:30 pm)
Minimum temperature yesterday: 23 °F (at 5:30 am)
Average temperature yesterday: 39 °F

High & Low Weather Summary for the Past Weeks

 TemperatureHumidityPressure
High66 °F (Jan 3, 11:30 am)80% (Jan 17, 5:30 am)30.30 "Hg (Jan 17, 5:30 am)
Low14 °F (Jan 7, 6:30 am)3% (Jan 8, 5:30 pm)29.77 "Hg (Jan 13, 1:30 pm)
Average43 °F24%30.10 "Hg
* Reported Jan 3 8:30 am — Jan 18 8:30 am, Kerman, Weather by CustomWeather, © 2017

Note: Actual official high and low records may vary slightly from our data, if they occured in-between our weather recording intervals... More about our weather records

Advertising

Kerman Weather History for the Previous 24 Hours

Scroll right to see more
 ConditionsComfort  
Time TempWeatherWind HumidityBarometerVisibility
8:30 am
Wed, Jan 18
32 °FSunny.5 mph55%30.24 "Hg10 mi
7:30 am23 °FSunny.5 mph58%30.24 "Hg10 mi
6:30 am21 °FClear.No wind63%30.24 "Hg10 mi
5:30 am21 °FClear.No wind63%30.21 "Hg10 mi
4:30 am23 °FClear.2 mph58%30.18 "Hg10 mi
3:30 am25 °FClear.5 mph59%30.18 "Hg10 mi
2:30 am27 °FClear.5 mph54%30.18 "Hg10 mi
1:30 am27 °FClear.5 mph59%30.18 "Hg10 mi
12:30 am32 °FClear.5 mph51%30.18 "Hg10 mi
11:30 pm
Tue, Jan 17
32 °FClear.5 mph47%30.21 "Hg10 mi
10:30 pm37 °FClear.5 mph45%30.21 "Hg10 mi
9:30 pm37 °FClear.5 mph41%30.21 "Hg10 mi
8:30 pm39 °FClear.5 mph42%30.21 "Hg10 mi
7:30 pm41 °FClear.5 mph39%30.18 "Hg10 mi
6:30 pm45 °FClear.5 mph37%30.18 "Hg10 mi
5:30 pm48 °FSunny.7 mph32%30.15 "Hg10 mi
4:30 pm52 °FSunny.7 mph30%30.12 "Hg10 mi
3:30 pm54 °FSunny.7 mph26%30.12 "Hg10 mi
2:30 pm52 °FSunny.7 mph30%30.12 "Hg10 mi
1:30 pm50 °FPassing clouds.7 mph32%30.15 "HgN/A
12:30 pm50 °FPassing clouds.5 mph35%30.18 "HgN/A
11:30 am50 °FPassing clouds.5 mph40%30.21 "HgN/A
10:30 am46 °FPassing clouds.5 mph46%30.27 "HgN/A
9:30 am46 °FSunny.No wind43%30.27 "Hg10 mi
Weather by CustomWeather, © 2017

See weather overviewHow to use our weather pages